[[{"header":{"parameterUnit":"m.s-1","parameterCategory":2,"la1":30.2991,"la2":30.254,"lo1":-89.0895,"lo2":-89.0444,"dy":0.0017,"dx":0.0017,"nx":28,"ny":28,"refTime":"2026-02-26T03:00:00:Z","depth":"0","parameterNumber":2,"parameterNumberName":"U-component_of_CURRENTS"},"data":[0,0,0,0,0,0,0,0,0,0,0,0,0,0,0,0,0,0,0,0,0,0,0,0,0,0,0,0,0,0,0,0,0,0,0,0,0,0,0,0,0,0,0,0,0,0,0,0,0,0,0,0,0,0,0,0,0,0,0.2114,0.2115,0,0.216,0.216,0.2161,0.2162,0.2161,0.2161,0.216,0.2166,0.2166,0.2167,0,0,0,0,0,0,0,0,0,0,0,0,0,0.2062,0.2063,0.2114,0.2115,0.2115,0.216,0.216,0.2161,0.2162,0.2161,0.2161,0.216,0.2165,0.2166,0.2167,0,0,0,0,0,0,0,0,0,0,0,0,0,0.2093,0.2063,0.2114,0.2122,0.2123,0.2159,0.216,0.2161,0.2162,0.2161,0.216,0.216,0.2165,0.2166,0.2167,0.2187,0,0,0.217,0.217,0,0,0,0,0,0,0,0,0.2091,0.2095,0.212,0.2121,0.2123,0.2155,0.2144,0.2168,0.2162,0.2146,0.216,0.2159,0.2159,0.2161,0.217,0.2187,0.2187,0.217,0.217,0.2171,0.2171,0,0,0,0,0,0,0,0.2089,0.2093,0.2131,0.2121,0.2123,0.2135,0.2138,0.2149,0.2155,0.2148,0.2148,0.2155,0.216,0.2169,0.217,0.2187,0.217,0.217,0.2171,0.2171,0.222,0.222,0,0,0,0,0,0,0.2084,0.2091,0.213,0.2133,0.2106,0.2136,0.214,0.2145,0.2156,0.2157,0.2155,0.2155,0.2168,0.2169,0.217,0.2195,0.2171,0.2171,0.2172,0.2219,0.222,0.2221,0,0,0,0,0,0,0.2083,0.2087,0.2128,0.2114,0.212,0.2138,0.2143,0.2146,0.2156,0.2162,0.2163,0.2163,0.2168,0.2169,0.2181,0.2195,0.2172,0.2173,0.2218,0.2219,0.222,0.2244,0,0,0,0,0,0,0.2081,0.2087,0.209,0.2113,0.212,0.2149,0.2144,0.2147,0.2162,0.2161,0.2169,0.2169,0.2167,0.218,0.2182,0.2196,0.2173,0.2217,0.2219,0.222,0.2243,0.2246,0.2249,0,0,0,0,0,0.2079,0.2085,0.209,0.2095,0.2124,0.215,0.2155,0.2165,0.2163,0.217,0.2175,0.2168,0.219,0.2181,0.2184,0.2198,0.2216,0.2218,0.222,0.2241,0.2245,0.2249,0,0,0,0,0,0,0.2062,0.2087,0.2093,0.2105,0.2126,0.215,0.216,0.2168,0.218,0.2178,0.2179,0.218,0.2197,0.2195,0.2185,0.2217,0.2202,0.2205,0.2218,0.2222,0.2225,0.2252,0.2174,0,0,0,0,0,0.2062,0.2072,0.2099,0.2108,0.212,0.2142,0.2154,0.2163,0.2176,0.2181,0.2187,0.2194,0.2208,0.2211,0.2222,0.2238,0.2295,0.2249,0.2252,0.2255,0.2279,0.2406,0.2424,0.2226,0.2226,0.2226,0,0,0.2057,0.2073,0.2078,0.2106,0.2123,0.2143,0.2147,0.2167,0.2183,0.218,0.2199,0.2207,0.2216,0.2235,0.2243,0.2233,0.2334,0.2257,0.226,0.2283,0.241,0.243,0.2447,0.2227,0.2227,0.2227,0,0,0.2057,0.2069,0.208,0.2099,0.2128,0.2144,0.2151,0.2178,0.219,0.2211,0.2216,0.2239,0.2247,0.2268,0.2276,0.2306,0.2351,0.2299,0.2336,0.2458,0.2476,0.2493,0.2565,0.2589,0.2297,0.2298,0.2298,0,0.2049,0.2068,0.2088,0.2105,0.2123,0.2145,0.2164,0.2183,0.2209,0.2239,0.2216,0.2282,0.2269,0.233,0.2325,0.2316,0.2384,0.2317,0.2466,0.2484,0.2501,0.2571,0.2597,0.2299,0.2299,0.2299,0.2298,0,0.2059,0.2076,0.2085,0.2114,0.2136,0.2155,0.2186,0.2213,0.2227,0.2259,0.2322,0.2327,0.2378,0.2363,0.2344,0.2451,0.2458,0.2461,0.2461,0.2523,0.2592,0.2618,0.2301,0.23,0.23,0.23,0,0,0.2034,0.2082,0.2084,0.2105,0.2142,0.2164,0.2202,0.2259,0.2314,0.2337,0.2424,0.2425,0.2459,0.2472,0.247,0.2546,0.2685,0.2548,0.2554,0.2629,0.2944,0.2887,0.2909,0.2732,0.2737,0.2741,0.2935,0,0.2035,0.2067,0.2093,0.2128,0.215,0.2191,0.2233,0.2291,0.2344,0.2433,0.2477,0.2548,0.2494,0.253,0.2603,0.2678,0.276,0.2631,0.2866,0.2872,0.2823,0.2941,0.2835,0.2996,0.296,0.2965,0.2968,0,0.2032,0.2059,0.2089,0.2154,0.217,0.2196,0.2292,0.2336,0.2464,0.2517,0.2614,0.2665,0.2772,0.2722,0.2912,0.2841,0.2899,0.2943,0.2953,0.2918,0.2866,0.2933,0.3045,0.294,0.3008,0.3005,0.3002,0,0.2004,0.2055,0.208,0.2097,0.2171,0.2206,0.2254,0.2366,0.2436,0.2594,0.2684,0.2816,0.2908,0.3018,0.3079,0.3032,0.3295,0.3247,0.3251,0.3245,0.3211,0.3193,0.3261,0.3411,0.3411,0.341,0.341,0,0.1991,0.2011,0.2071,0.2084,0.2139,0.2199,0.2286,0.2362,0.2509,0.2621,0.2735,0.2851,0.2998,0.3141,0.3176,0.3302,0.3388,0.3299,0.3319,0.3208,0.3189,0.3137,0.3099,0.3417,0.3416,0.3414,0.3413,0,0.1956,0.1987,0.2024,0.2099,0.2122,0.2165,0.2285,0.2367,0.2508,0.2669,0.2731,0.294,0.3129,0.325,0.3442,0.3433,0.3455,0.3556,0.3383,0.3379,0.3244,0.321,0.3229,0.3139,0.3612,0.3612,0.3612,0,0.194,0.1954,0.202,0.2048,0.208,0.2152,0.2212,0.2344,0.2437,0.2701,0.2782,0.3028,0.3166,0.3426,0.349,0.3605,0.3487,0.3549,0.3427,0.3261,0.3242,0.309,0.3,0.3384,0.3383,0.3381,0.338,0,0.1926,0.1946,0.1984,0.2045,0.2095,0.2148,0.2242,0.2306,0.2485,0.2621,0.2819,0.2956,0.3227,0.331,0.3468,0.3512,0.3375,0.352,0.3433,0.3153,0.2917,0.2828,0.319,0.3367,0.3369,0.337,0.337,0.3371,0.1929,0.1946,0.2007,0.2062,0.2103,0.2147,0.2177,0.2281,0.2399,0.2582,0.2755,0.2909,0.3103,0.3311,0.3334,0.3308,0.3292,0.3228,0.3229,0.3108,0.2936,0.3237,0.3373,0.3375,0.3376,0.3377,0.3377,0,0.1959,0.198,0.203,0.2084,0.2109,0.2139,0.2204,0.2218,0.2298,0.2464,0.2614,0.2795,0.2896,0.302,0.3104,0.3028,0.2877,0.2968,0.2743,0.2691,0.3057,0.2957,0.2906,0.2906,0.2906,0.2906,0.2906,0.2906,0.1986,0.2032,0.2053,0.2089,0.2106,0.2111,0.212,0.2122,0.2192,0.228,0.2368,0.2511,0.2747,0.2926,0.2888,0.2822,0.26,0.2514,0.2489,0.2753,0.2775,0.2796,0.2691,0.2585,0.2584,0.199,0.1986,0.1983]},{"header":{"parameterUnit":"m.s-1","parameterCategory":2,"la1":30.2991,"la2":30.254,"lo1":-89.0895,"lo2":-89.0444,"dy":0.0017,"dx":0.0017,"nx":28,"ny":28,"refTime":"2026-02-26T03:00:00:Z","depth":"0","parameterNumber":3,"parameterNumberName":"V-component_of_CURRENTS"},"data":[0,0,0,0,0,0,0,0,0,0,0,0,0,0,0,0,0,0,0,0,0,0,0,0,0,0,0,0,0,0,0,0,0,0,0,0,0,0,0,0,0,0,0,0,0,0,0,0,0,0,0,0,0,0,0,0,0,0,0.018,0.018,0,0.0124,0.0123,0.0123,0.0069,0.0068,0.0068,0.0067,-0.0032,-0.0034,-0.0036,0,0,0,0,0,0,0,0,0,0,0,0,0,0.0214,0.0214,0.0181,0.018,0.0179,0.0124,0.0123,0.0122,0.0069,0.0068,0.0068,0.0067,-0.0031,-0.0034,-0.0036,0,0,0,0,0,0,0,0,0,0,0,0,0,0.0182,0.0214,0.0181,0.0147,0.0144,0.0124,0.0123,0.0122,0.0069,0.0068,0.0068,0.0067,-0.003,-0.0033,-0.0036,-0.0039,0,0,-0.0046,-0.0048,0,0,0,0,0,0,0,0,0.0184,0.018,0.0153,0.0149,0.0146,0.0104,0.0099,0.0067,0.0069,0.0096,0.0067,0.0066,0.0011,0.0005,-0.0006,-0.0044,-0.0048,-0.0046,-0.0048,-0.005,-0.0051,0,0,0,0,0,0,0,0.0186,0.0182,0.0157,0.0152,0.0148,0.0126,0.012,0.0092,0.0057,0.0094,0.009,0.0086,0.0009,-0.0002,-0.0008,-0.005,-0.0046,-0.0049,-0.0051,-0.0052,-0.0104,-0.0104,0,0,0,0,0,0,0.0198,0.0185,0.0159,0.0155,0.0164,0.0126,0.012,0.0117,0.0058,0.0049,0.0087,0.0084,0.0004,-0.0005,-0.0012,-0.0019,-0.005,-0.0053,-0.0055,-0.0105,-0.0104,-0.0104,0,0,0,0,0,0,0.0199,0.0196,0.0161,0.017,0.0164,0.0126,0.0124,0.0116,0.0106,0.0054,0.0043,0.0084,0.0003,-0.0008,-0.0032,-0.0024,-0.0054,-0.0057,-0.0106,-0.0105,-0.0104,-0.0034,0,0,0,0,0,0,0.02,0.0197,0.0201,0.0171,0.0164,0.0157,0.0124,0.0116,0.0105,0.0101,0.0048,0.0038,0.0001,-0.0027,-0.0035,-0.0029,-0.0059,-0.0106,-0.0105,-0.0104,-0.0037,-0.0031,-0.0026,0,0,0,0,0,0.0202,0.0214,0.0202,0.0199,0.017,0.0158,0.0152,0.0122,0.0106,0.0108,0.0072,0.004,-0.0027,-0.0029,-0.0039,-0.0033,-0.0107,-0.0105,-0.0104,-0.0039,-0.0032,-0.0026,0,0,0,0,0,0,0.0231,0.0209,0.0195,0.0199,0.0183,0.0149,0.015,0.013,0.0103,0.0098,0.0047,0.0035,0.0015,-0.0015,-0.0016,-0.0045,-0.0072,-0.0073,-0.0019,-0.0013,-0.0007,0.0024,-0.0062,0,0,0,0,0,0.0241,0.0243,0.0217,0.0221,0.0216,0.0185,0.0177,0.0157,0.013,0.0117,0.0081,0.0043,0.0013,-0.0004,-0.0036,-0.0048,-0.0052,-0.0051,-0.0046,-0.0041,-0.0022,-0.0005,0.0005,-0.01,-0.01,-0.01,0,0,0.0253,0.0242,0.0242,0.0228,0.0211,0.0208,0.0178,0.0172,0.0168,0.0111,0.0097,0.0062,0.0014,-0.0003,-0.0014,-0.0027,-0.0016,-0.0039,-0.0034,-0.0018,-0.0003,0.0008,0.0017,-0.0099,-0.0099,-0.0099,0,0,0.0279,0.027,0.0278,0.0269,0.0252,0.0233,0.0235,0.0208,0.0195,0.0179,0.0137,0.0117,0.0065,0.004,0.0018,0.0039,0.0014,0.0021,0.0074,0.009,0.0099,0.0108,0.0108,0.0116,0.0024,0.0024,0.0024,0,0.0293,0.0298,0.028,0.0284,0.0282,0.0248,0.0256,0.0241,0.0208,0.0215,0.0183,0.0143,0.0089,0.0089,0.0081,0.0053,0.0056,0.0052,0.01,0.0108,0.0115,0.0114,0.0122,0.0028,0.0027,0.0027,0.0027,0,0.0321,0.0324,0.0331,0.0323,0.0321,0.0324,0.0302,0.0304,0.0284,0.0272,0.0273,0.0217,0.0203,0.0171,0.0122,0.0147,0.0129,0.0107,0.0088,0.013,0.0125,0.0132,0.0033,0.0032,0.003,0.003,0,0,0.035,0.035,0.0352,0.0365,0.0343,0.0353,0.0354,0.0361,0.04,0.0356,0.0406,0.0326,0.0318,0.0294,0.0245,0.0239,0.0264,0.0194,0.0193,0.0205,0.0297,0.0267,0.0271,0.0256,0.0257,0.0259,0.0271,0,0.0374,0.0399,0.0388,0.0417,0.0429,0.0414,0.0436,0.0442,0.0443,0.0486,0.0443,0.0465,0.036,0.0374,0.0347,0.0301,0.0287,0.0263,0.0246,0.0246,0.0223,0.028,0.025,0.0257,0.0277,0.0278,0.0279,0,0.0399,0.0416,0.0447,0.0488,0.0497,0.0514,0.0571,0.0591,0.0629,0.0641,0.0651,0.0629,0.0616,0.0531,0.0471,0.0465,0.0385,0.0333,0.0332,0.029,0.0229,0.0219,0.0269,0.0084,0.0289,0.0288,0.0288,0,0.0432,0.046,0.0493,0.0499,0.0536,0.0569,0.0601,0.0644,0.0713,0.0764,0.0838,0.0794,0.0829,0.0722,0.0584,0.0544,0.0527,0.0462,0.0357,0.0354,0.0318,0.0309,0.0199,0.0426,0.0426,0.0426,0.0426,0,0.0459,0.0488,0.0521,0.0542,0.063,0.0635,0.0749,0.0777,0.0874,0.1002,0.0941,0.1039,0.0884,0.0845,0.0671,0.0549,0.0595,0.039,0.0368,0.0338,0.0331,0.0159,0.006,0.0426,0.0426,0.0426,0.0426,0,0.0493,0.0496,0.0557,0.0616,0.0645,0.0721,0.0857,0.0964,0.1029,0.1202,0.124,0.1259,0.1215,0.1033,0.0888,0.0703,0.0458,0.0491,0.0457,0.043,0.0146,0.0053,-0.0033,-0.0102,0.0393,0.0392,0.0392,0,0.0515,0.0546,0.0628,0.0698,0.0732,0.0846,0.0951,0.1034,0.1166,0.1346,0.1458,0.1472,0.1489,0.1253,0.0942,0.0663,0.0479,0.0442,0.0348,0.0148,0.0028,-0.0026,-0.0082,0.0321,0.032,0.0319,0.0318,0,0.0591,0.0617,0.0682,0.0827,0.0936,0.1067,0.1219,0.1333,0.1477,0.1614,0.179,0.1813,0.1603,0.132,0.0932,0.0716,0.0316,0.0418,0.0231,-0.0011,-0.0093,-0.0176,0.0278,0.0312,0.0312,0.0313,0.0313,0.0313,0.0678,0.0753,0.0864,0.1003,0.1127,0.13,0.143,0.1583,0.1786,0.1989,0.2016,0.204,0.1616,0.109,0.0804,0.024,0.0275,0.0045,-0.0043,-0.0072,-0.0166,0.0269,0.0261,0.0262,0.0262,0.0262,0.0263,0,0.0829,0.0915,0.105,0.1227,0.1389,0.142,0.1637,0.1774,0.1991,0.209,0.221,0.1965,0.1443,0.091,0.0179,-0.0176,-0.03,-0.037,-0.0474,-0.0503,-0.0103,-0.0138,-0.0254,-0.0254,-0.0254,-0.0254,-0.0254,-0.0254,0.0933,0.1092,0.1158,0.1445,0.1563,0.1781,0.1898,0.2055,0.2146,0.2235,0.2169,0.2128,0.1679,0.041,-0.0434,-0.0618,-0.0853,-0.0897,-0.0989,-0.0769,-0.0737,-0.0708,-0.0765,-0.1011,-0.1012,-0.1354,-0.1358,-0.1361]}],[{"header":{"parameterUnit":"m.s-1","parameterCategory":2,"la1":30.2991,"la2":30.254,"lo1":-89.0895,"lo2":-89.0444,"dy":0.0017,"dx":0.0017,"nx":28,"ny":28,"refTime":"2026-02-26T03:00:00:Z","depth":"2","parameterNumber":2,"parameterNumberName":"U-component_of_CURRENTS"},"data":[0,0,0,0,0,0,0,0,0,0,0,0,0,0,0,0,0,0,0,0,0,0,0,0,0,0,0,0,0,0,0,0,0,0,0,0,0,0,0,0,0,0,0,0,0,0,0,0,0,0,0,0,0,0,0,0,0,0,0.1921,0.1921,0,0.1957,0.1957,0.1958,0.1975,0.1975,0.1976,0.1976,0.2008,0.2009,0.201,0,0,0,0,0,0,0,0,0,0,0,0,0,0.1876,0.1877,0.1921,0.1921,0.1922,0.1957,0.1957,0.1958,0.1975,0.1975,0.1976,0.1976,0.2008,0.2009,0.201,0,0,0,0,0,0,0,0,0,0,0,0,0,0.1902,0.1877,0.1921,0.1935,0.1937,0.1957,0.1957,0.1958,0.1975,0.1975,0.1976,0.1976,0.2008,0.2009,0.201,0.2016,0,0,0.2014,0.2014,0,0,0,0,0,0,0,0,0.19,0.1903,0.1933,0.1934,0.1936,0.1962,0.1953,0.1977,0.1975,0.196,0.1976,0.1976,0.1993,0.1995,0.2001,0.2018,0.2019,0.2014,0.2015,0.2015,0.2016,0,0,0,0,0,0,0,0.1898,0.1902,0.1935,0.1933,0.1935,0.1943,0.1946,0.1958,0.1975,0.1962,0.1963,0.1968,0.1994,0.2,0.2002,0.202,0.2014,0.2015,0.2016,0.2016,0.2074,0.2075,0,0,0,0,0,0,0.1894,0.19,0.1933,0.1936,0.1918,0.1944,0.1948,0.1953,0.1975,0.1979,0.1968,0.1969,0.1998,0.2001,0.2003,0.2041,0.2015,0.2016,0.2017,0.2073,0.2074,0.2075,0,0,0,0,0,0,0.1893,0.1897,0.1932,0.1919,0.1924,0.1944,0.1951,0.1954,0.1972,0.198,0.1984,0.1984,0.1998,0.2002,0.2027,0.2041,0.2017,0.2018,0.2072,0.2074,0.2075,0.2097,0,0,0,0,0,0,0.1892,0.1896,0.1902,0.1919,0.1925,0.1951,0.1951,0.1955,0.1975,0.1976,0.1995,0.1997,0.1998,0.2026,0.2029,0.2042,0.2019,0.2071,0.2073,0.2074,0.2095,0.2099,0.2102,0,0,0,0,0,0.189,0.1894,0.1902,0.1906,0.1931,0.1952,0.1956,0.197,0.1975,0.1986,0.2001,0.1997,0.2037,0.2027,0.2031,0.2045,0.2071,0.2073,0.2074,0.2094,0.2098,0.2102,0,0,0,0,0,0,0.1876,0.1897,0.1906,0.1916,0.1937,0.1955,0.1966,0.1977,0.1998,0.2002,0.2009,0.2013,0.2041,0.2041,0.2031,0.2066,0.2052,0.2055,0.2066,0.207,0.2073,0.2098,0.202,0,0,0,0,0,0.1877,0.1887,0.1909,0.1919,0.1931,0.1952,0.1964,0.1975,0.1994,0.2003,0.2017,0.2032,0.2049,0.2059,0.2072,0.2092,0.2135,0.2103,0.2106,0.2109,0.2132,0.2236,0.2252,0.2081,0.2081,0.2081,0,0,0.1873,0.1887,0.1892,0.1918,0.1935,0.1954,0.196,0.1981,0.1999,0.2003,0.2033,0.2047,0.2059,0.2082,0.2094,0.2085,0.2172,0.2111,0.2114,0.2135,0.224,0.2257,0.2272,0.2082,0.2082,0.2082,0,0,0.1874,0.1887,0.1899,0.1919,0.1947,0.196,0.197,0.1997,0.2013,0.2041,0.205,0.2081,0.2098,0.2117,0.2126,0.2158,0.2189,0.2153,0.2188,0.2288,0.2304,0.2319,0.2362,0.2381,0.2152,0.2152,0.2152,0,0.1869,0.1889,0.1906,0.1927,0.1943,0.1966,0.1986,0.2004,0.2036,0.2068,0.2053,0.2127,0.2119,0.2177,0.2174,0.2167,0.2218,0.2169,0.2296,0.2311,0.2326,0.2368,0.2388,0.2153,0.2153,0.2153,0.2153,0,0.1881,0.1902,0.1912,0.1944,0.1964,0.1984,0.2012,0.2042,0.2062,0.2094,0.2162,0.217,0.2227,0.2212,0.2194,0.2287,0.2285,0.2291,0.2289,0.2345,0.2384,0.2404,0.2155,0.2154,0.2154,0.2154,0,0,0.1857,0.1909,0.1913,0.1937,0.1976,0.1994,0.2033,0.2088,0.2144,0.2174,0.2258,0.2266,0.2305,0.2318,0.2316,0.2374,0.2479,0.2371,0.2376,0.2421,0.2682,0.2561,0.2572,0.2524,0.2528,0.2531,0.2656,0,0.1863,0.1902,0.1925,0.1965,0.1991,0.2028,0.207,0.2125,0.2178,0.2265,0.2308,0.2379,0.2337,0.2373,0.2432,0.248,0.2541,0.2443,0.2617,0.2621,0.2515,0.2595,0.2372,0.2456,0.2676,0.268,0.2682,0,0.1866,0.1896,0.1933,0.1997,0.2013,0.2041,0.2133,0.2175,0.2297,0.2349,0.2448,0.2495,0.2584,0.2542,0.2685,0.2633,0.2665,0.2688,0.2694,0.2597,0.2541,0.2443,0.2486,0.2717,0.2714,0.2712,0.2709,0,0.1846,0.1901,0.1932,0.195,0.2023,0.2058,0.2104,0.2212,0.2278,0.2425,0.2512,0.2628,0.2708,0.2787,0.2809,0.2781,0.2957,0.2931,0.2854,0.2844,0.2695,0.2664,0.3056,0.3056,0.3056,0.3055,0.3055,0,0.1847,0.1871,0.1929,0.1947,0.2,0.206,0.2145,0.2216,0.2356,0.2457,0.2567,0.2673,0.2784,0.288,0.2886,0.2926,0.3034,0.2886,0.2889,0.2687,0.2656,0.2916,0.2898,0.306,0.3059,0.3058,0.3057,0,0.1827,0.1861,0.1896,0.1968,0.199,0.2032,0.2147,0.2226,0.2365,0.2508,0.2565,0.2756,0.2867,0.2929,0.3051,0.3022,0.3062,0.3043,0.2761,0.2728,0.2861,0.2843,0.3002,0.3,0.2997,0.2995,0.2994,0,0.1817,0.1836,0.1892,0.1915,0.1948,0.202,0.2078,0.2209,0.2295,0.2539,0.2607,0.2783,0.2862,0.2986,0.2952,0.2957,0.3022,0.2767,0.2666,0.2879,0.2867,0.2852,0.2837,0.247,0.2464,0.246,0.2456,0,0.1802,0.1821,0.1858,0.1904,0.195,0.2006,0.2098,0.2158,0.2326,0.2444,0.2615,0.2706,0.2814,0.2736,0.2736,0.2698,0.2742,0.2669,0.3033,0.2496,0.2382,0.2367,0.237,0.2414,0.2418,0.2421,0.2423,0.2425,0.1786,0.1805,0.1856,0.1911,0.1952,0.2001,0.203,0.211,0.2211,0.2335,0.247,0.252,0.2572,0.2453,0.2386,0.233,0.2494,0.2406,0.242,0.2439,0.2333,0.2219,0.2198,0.2201,0.2204,0.2206,0.2208,0,0.1778,0.1823,0.1866,0.1915,0.1944,0.1988,0.2054,0.2035,0.2081,0.2168,0.223,0.2072,0.2032,0.2085,0.194,0.1934,0.1903,0.1864,0.1825,0.1867,0.1905,0.1771,0.1489,0.1487,0.1485,0.1483,0,0,0.1779,0.181,0.185,0.19,0.1945,0.1952,0.1974,0.1906,0.1915,0.1842,0.1837,0.1938,0.2045,0.1756,0.1705,0.1593,0.1717,0.1522,0.2099,0.2097,0.2133,0.2215,0.2056,0,0,0,0,0]},{"header":{"parameterUnit":"m.s-1","parameterCategory":2,"la1":30.2991,"la2":30.254,"lo1":-89.0895,"lo2":-89.0444,"dy":0.0017,"dx":0.0017,"nx":28,"ny":28,"refTime":"2026-02-26T03:00:00:Z","depth":"2","parameterNumber":3,"parameterNumberName":"V-component_of_CURRENTS"},"data":[0,0,0,0,0,0,0,0,0,0,0,0,0,0,0,0,0,0,0,0,0,0,0,0,0,0,0,0,0,0,0,0,0,0,0,0,0,0,0,0,0,0,0,0,0,0,0,0,0,0,0,0,0,0,0,0,0,0,-0.0001,-0.0001,0,-0.0054,-0.0055,-0.0055,-0.0093,-0.0093,-0.0094,-0.0094,-0.0178,-0.018,-0.0182,0,0,0,0,0,0,0,0,0,0,0,0,0,0.0031,0.0031,-0.0001,-0.0002,-0.0002,-0.0054,-0.0055,-0.0055,-0.0093,-0.0093,-0.0094,-0.0094,-0.0177,-0.018,-0.0182,0,0,0,0,0,0,0,0,0,0,0,0,0,0.0001,0.0031,-0.0001,-0.0026,-0.0029,-0.0054,-0.0055,-0.0056,-0.0093,-0.0093,-0.0094,-0.0094,-0.0177,-0.0179,-0.0183,-0.0195,0,0,-0.0192,-0.0193,0,0,0,0,0,0,0,0,0.0003,-0.0,-0.0022,-0.0025,-0.0028,-0.0066,-0.0074,-0.0103,-0.0093,-0.007,-0.0094,-0.0094,-0.0143,-0.0148,-0.0159,-0.0199,-0.0203,-0.0192,-0.0194,-0.0195,-0.0196,0,0,0,0,0,0,0,0.0005,0.0002,-0.0023,-0.0023,-0.0026,-0.0047,-0.0052,-0.008,-0.0105,-0.0072,-0.0074,-0.0079,-0.0145,-0.0156,-0.0161,-0.0204,-0.0192,-0.0195,-0.0197,-0.0198,-0.0255,-0.0255,0,0,0,0,0,0,0.0016,0.0004,-0.0021,-0.0024,-0.0012,-0.0048,-0.0053,-0.0054,-0.0104,-0.0112,-0.0078,-0.008,-0.015,-0.0157,-0.0164,-0.0169,-0.0195,-0.0198,-0.02,-0.0255,-0.0255,-0.0254,0,0,0,0,0,0,0.0017,0.0014,-0.0019,-0.0011,-0.0017,-0.0047,-0.0049,-0.0055,-0.0061,-0.0109,-0.0117,-0.0077,-0.0151,-0.016,-0.018,-0.0173,-0.02,-0.0202,-0.0256,-0.0255,-0.0255,-0.0187,0,0,0,0,0,0,0.0018,0.0015,0.0019,-0.001,-0.0017,-0.0025,-0.0049,-0.0056,-0.0063,-0.0066,-0.0111,-0.0119,-0.0152,-0.0175,-0.0183,-0.0178,-0.0205,-0.0256,-0.0255,-0.0255,-0.019,-0.0185,-0.018,0,0,0,0,0,0.0019,0.0028,0.002,0.0017,-0.001,-0.0024,-0.0029,-0.0054,-0.0062,-0.0061,-0.0089,-0.0117,-0.0177,-0.0177,-0.0187,-0.0182,-0.0256,-0.0256,-0.0255,-0.0192,-0.0186,-0.018,0,0,0,0,0,0,0.0043,0.0024,0.0014,0.0016,0.0001,-0.003,-0.003,-0.0045,-0.0067,-0.0068,-0.0112,-0.0122,-0.0139,-0.0168,-0.0167,-0.0197,-0.0222,-0.0223,-0.0171,-0.0165,-0.0161,-0.0137,-0.0207,0,0,0,0,0,0.0052,0.0053,0.003,0.0033,0.0029,0.0002,-0.0006,-0.0021,-0.0044,-0.0053,-0.0083,-0.0116,-0.0145,-0.0159,-0.019,-0.0203,-0.0224,-0.0208,-0.0202,-0.0198,-0.0185,-0.02,-0.0195,-0.0252,-0.0252,-0.0252,0,0,0.0061,0.0052,0.0051,0.0038,0.0025,0.0024,-0.0004,-0.0009,-0.0009,-0.006,-0.0067,-0.01,-0.0144,-0.0161,-0.0171,-0.0183,-0.0195,-0.0197,-0.0193,-0.0182,-0.0199,-0.0193,-0.0188,-0.0252,-0.0252,-0.0252,0,0,0.0083,0.0074,0.0084,0.0077,0.0064,0.0046,0.005,0.0026,0.0016,0.0004,-0.0032,-0.0053,-0.0098,-0.0124,-0.0145,-0.0129,-0.0168,-0.0145,-0.0101,-0.0115,-0.011,-0.0106,-0.0132,-0.0131,-0.0142,-0.0142,-0.0142,0,0.0096,0.0105,0.0085,0.0094,0.0093,0.0062,0.0073,0.0058,0.0031,0.0034,0.0012,-0.0033,-0.0078,-0.0089,-0.0092,-0.0117,-0.0135,-0.0118,-0.0107,-0.0103,-0.01,-0.0128,-0.0127,-0.0139,-0.0139,-0.014,-0.014,0,0.0124,0.0133,0.014,0.014,0.0136,0.0142,0.0121,0.012,0.0104,0.0091,0.0084,0.0032,0.0013,-0.0015,-0.0054,-0.0054,-0.0078,-0.0098,-0.0118,-0.009,-0.0122,-0.0122,-0.0134,-0.0135,-0.0136,-0.0137,0,0,0.0149,0.0158,0.0161,0.0177,0.0163,0.0168,0.0171,0.0172,0.0199,0.0161,0.019,0.0124,0.011,0.0086,0.004,0.0013,0.0002,-0.0031,-0.0033,-0.0048,-0.0036,-0.0096,-0.0104,-0.0014,-0.0013,-0.0013,-0.0069,0,0.0178,0.0211,0.0202,0.0234,0.0251,0.0233,0.025,0.0248,0.0241,0.0263,0.0215,0.0223,0.0145,0.015,0.0109,0.0039,0.0006,0.0019,-0.0067,-0.007,-0.012,-0.0104,-0.0102,-0.0155,-0.0069,-0.007,-0.007,0,0.0208,0.0229,0.0268,0.0302,0.031,0.0328,0.0362,0.0376,0.0388,0.039,0.0384,0.0352,0.0317,0.0251,0.0147,0.0161,0.0069,0.0002,-0.0002,-0.0079,-0.0131,-0.0169,-0.016,-0.0071,-0.0071,-0.0071,-0.0071,0,0.0243,0.0276,0.0313,0.0322,0.0353,0.038,0.0402,0.0422,0.0469,0.0488,0.0533,0.047,0.047,0.0352,0.0196,0.0182,0.0074,0.004,-0.0103,-0.0109,-0.0135,-0.0144,-0.0034,-0.0034,-0.0034,-0.0034,-0.0034,0,0.0281,0.0312,0.0342,0.0367,0.0436,0.0441,0.0526,0.0539,0.06,0.0677,0.0618,0.0668,0.0497,0.0409,0.0247,0.007,0.0114,-0.009,-0.0123,-0.0114,-0.012,-0.0068,-0.0071,-0.0036,-0.0035,-0.0035,-0.0035,0,0.0321,0.0331,0.0384,0.0433,0.0456,0.0514,0.0617,0.0691,0.0734,0.0835,0.0857,0.0827,0.0695,0.0491,0.0296,0.0152,-0.0021,-0.0101,-0.009,-0.0122,-0.0208,-0.0207,-0.0249,-0.0251,-0.0253,-0.0255,-0.0257,0,0.0344,0.0376,0.0441,0.0489,0.0519,0.061,0.0688,0.0753,0.0838,0.0939,0.0998,0.0915,0.084,0.0526,0.0233,-0.007,-0.0084,-0.0221,-0.0258,-0.0199,-0.0227,-0.0223,-0.022,-0.0266,-0.0268,-0.0269,-0.027,0,0.04,0.0422,0.0472,0.0567,0.0649,0.0756,0.0866,0.0949,0.1041,0.1092,0.1153,0.1103,0.0813,0.0507,0.0108,-0.0086,-0.0177,-0.0256,-0.0178,-0.0219,-0.0223,-0.0248,-0.0243,-0.0281,-0.0279,-0.0279,-0.0278,-0.0278,0.0441,0.0494,0.0562,0.0668,0.076,0.0894,0.0994,0.1092,0.1194,0.1271,0.1202,0.1121,0.0849,0.0297,0.0006,-0.0286,-0.0298,-0.038,-0.0373,-0.0366,-0.0365,-0.0372,-0.0459,-0.0459,-0.0459,-0.0459,-0.0459,0,0.0486,0.0566,0.0664,0.0771,0.0859,0.0951,0.1114,0.118,0.1279,0.131,0.1264,0.0934,0.0611,0.0328,-0.0123,-0.0395,-0.0395,-0.046,-0.0389,-0.038,-0.0372,-0.0367,-0.0463,-0.0463,-0.0463,-0.0463,0,0,0.051,0.059,0.066,0.0819,0.0944,0.1108,0.1224,0.1288,0.1323,0.1291,0.1242,0.1073,0.0732,0.0416,0.0032,-0.0191,-0.0209,-0.0242,-0.0223,-0.0089,-0.0075,-0.033,-0.0315,0,0,0,0,0]}],[{"header":{"parameterUnit":"m.s-1","parameterCategory":2,"la1":30.2991,"la2":30.254,"lo1":-89.0895,"lo2":-89.0444,"dy":0.0017,"dx":0.0017,"nx":28,"ny":28,"refTime":"2026-02-26T03:00:00:Z","depth":"4","parameterNumber":2,"parameterNumberName":"U-component_of_CURRENTS"},"data":[0,0,0,0,0,0,0,0,0,0,0,0,0,0,0,0,0,0,0,0,0,0,0,0,0,0,0,0,0,0,0,0,0,0,0,0,0,0,0,0,0,0,0,0,0,0,0,0,0,0,0,0,0,0,0,0,0,0,0.1081,0.1082,0,0.1132,0.1132,0.1133,0.1172,0.1172,0.1173,0.1173,0.1235,0.1236,0.1237,0,0,0,0,0,0,0,0,0,0,0,0,0,0.1009,0.101,0.1081,0.1082,0.1082,0.1132,0.1132,0.1133,0.1171,0.1172,0.1173,0.1174,0.1234,0.1236,0.1237,0,0,0,0,0,0,0,0,0,0,0,0,0,0.1045,0.101,0.1081,0.111,0.1113,0.1132,0.1132,0.1133,0.1171,0.1172,0.1173,0.1174,0.1234,0.1235,0.1237,0.1229,0,0,0.1242,0.1243,0,0,0,0,0,0,0,0,0.1043,0.1048,0.1105,0.1108,0.1112,0.1149,0.113,0.1166,0.1171,0.1146,0.1173,0.1174,0.1208,0.1212,0.1215,0.1232,0.1234,0.1242,0.1243,0.1244,0.1244,0,0,0,0,0,0,0,0.1041,0.1046,0.1098,0.1105,0.111,0.1118,0.1124,0.1136,0.117,0.1149,0.1152,0.1162,0.121,0.1214,0.1217,0.1235,0.1242,0.1244,0.1245,0.1245,0.1302,0.1303,0,0,0,0,0,0,0.1039,0.1043,0.1097,0.11,0.1082,0.1119,0.1125,0.1134,0.1169,0.1176,0.1161,0.1163,0.1211,0.1215,0.122,0.1289,0.1244,0.1245,0.1246,0.1302,0.1302,0.1303,0,0,0,0,0,0,0.1038,0.1043,0.1095,0.1075,0.1083,0.1119,0.1128,0.1134,0.1165,0.1179,0.1186,0.1189,0.1211,0.1217,0.1251,0.1288,0.1246,0.1247,0.1301,0.1302,0.1303,0.1378,0,0,0,0,0,0,0.1035,0.1042,0.1058,0.1075,0.1084,0.1121,0.1128,0.1135,0.1169,0.1174,0.1205,0.121,0.1213,0.1248,0.1252,0.129,0.1249,0.13,0.1301,0.1302,0.1374,0.1381,0.1386,0,0,0,0,0,0.1032,0.1045,0.1058,0.1065,0.11,0.1122,0.1128,0.1154,0.117,0.1185,0.1207,0.121,0.1258,0.125,0.1255,0.1294,0.13,0.1301,0.1302,0.1372,0.138,0.1386,0,0,0,0,0,0,0.1022,0.1051,0.1065,0.1087,0.1112,0.113,0.1151,0.1168,0.1196,0.121,0.122,0.1226,0.1271,0.1263,0.1254,0.1309,0.1278,0.1281,0.133,0.1337,0.1343,0.1344,0.125,0,0,0,0,0,0.1027,0.1047,0.1072,0.1093,0.1107,0.1134,0.1151,0.1171,0.1195,0.121,0.123,0.125,0.1273,0.1291,0.1304,0.1334,0.1336,0.1359,0.1365,0.137,0.1372,0.1421,0.1432,0.1307,0.1307,0.1307,0,0,0.1027,0.1049,0.1059,0.1093,0.1115,0.1137,0.1147,0.1182,0.1209,0.1211,0.1257,0.1275,0.1285,0.1323,0.1342,0.1327,0.1403,0.1372,0.1377,0.1375,0.1423,0.1436,0.1447,0.1308,0.1308,0.1308,0,0,0.1029,0.106,0.1074,0.1098,0.114,0.1158,0.1174,0.1207,0.1235,0.1274,0.1288,0.1325,0.1354,0.1374,0.1385,0.1428,0.1434,0.1436,0.1473,0.1522,0.1533,0.1543,0.155,0.156,0.1439,0.1439,0.1439,0,0.1033,0.1056,0.1082,0.1105,0.1134,0.1169,0.1195,0.1223,0.1265,0.1297,0.1298,0.1366,0.1377,0.1433,0.1448,0.1445,0.1462,0.1451,0.1533,0.1542,0.1551,0.1557,0.1567,0.1443,0.1443,0.1442,0.1442,0,0.104,0.107,0.1084,0.1126,0.1157,0.119,0.1231,0.1273,0.1313,0.1342,0.1413,0.1431,0.1475,0.1485,0.1483,0.1555,0.1541,0.1539,0.1521,0.1569,0.157,0.158,0.1448,0.1447,0.1446,0.1445,0,0,0.1014,0.1077,0.1084,0.1117,0.1179,0.1205,0.1263,0.1324,0.1379,0.142,0.1489,0.1529,0.1555,0.1567,0.158,0.1615,0.1688,0.161,0.1611,0.1628,0.178,0.1652,0.1649,0.1717,0.172,0.1721,0.1751,0,0.1017,0.106,0.1097,0.1152,0.118,0.1245,0.1298,0.1363,0.1422,0.1494,0.1536,0.1603,0.1582,0.1627,0.1659,0.1689,0.1718,0.1678,0.172,0.172,0.1611,0.1658,0.1729,0.1758,0.176,0.1762,0.1763,0,0.1003,0.1043,0.1095,0.1182,0.1204,0.1253,0.1366,0.1419,0.1522,0.1571,0.1642,0.1681,0.1747,0.1726,0.1791,0.1775,0.1783,0.179,0.1791,0.1652,0.161,0.17,0.178,0.1778,0.1777,0.1776,0.1775,0,0.0965,0.1039,0.1089,0.1118,0.1219,0.128,0.1348,0.1453,0.1513,0.1639,0.1695,0.1771,0.1819,0.1858,0.1859,0.1853,0.1913,0.1906,0.1789,0.1779,0.1853,0.1842,0.1954,0.1954,0.1954,0.1954,0.1954,0,0.0942,0.0983,0.1086,0.1118,0.1203,0.1281,0.1382,0.1465,0.1578,0.1646,0.1741,0.1788,0.1861,0.1895,0.1896,0.1856,0.1944,0.1798,0.1787,0.1879,0.1871,0.1859,0.1847,0.1955,0.1955,0.1955,0.1954,0,0.0884,0.0948,0.1022,0.1146,0.1189,0.126,0.1397,0.1457,0.158,0.1674,0.1723,0.1823,0.1868,0.1903,0.1951,0.1881,0.1875,0.1837,0.1914,0.1906,0.17,0.1692,0.1724,0.172,0.1717,0.1714,0.1712,0,0.0861,0.0885,0.1031,0.1083,0.115,0.1254,0.1317,0.145,0.1511,0.1667,0.17,0.1794,0.184,0.179,0.1839,0.1832,0.1806,0.178,0.1753,0.1695,0.1682,0.1679,0.1676,0.1706,0.1705,0.1704,0.1703,0,0.0817,0.088,0.0944,0.1036,0.1122,0.1192,0.1298,0.1333,0.1475,0.1597,0.1639,0.1665,0.1698,0.171,0.1707,0.17,0.1791,0.1744,0.1751,0.1726,0.1673,0.1663,0.1663,0.1691,0.1693,0.1694,0.1695,0,0.0796,0.0825,0.0905,0.0974,0.1063,0.1101,0.1173,0.1238,0.131,0.1493,0.1493,0.1587,0.1675,0.1641,0.1643,0.1624,0.1605,0.1544,0.1561,0.1575,0.151,0.142,0.1357,0,0,0,0,0,0.0768,0.0771,0.0826,0.0896,0.0968,0.101,0.1136,0.1206,0.1349,0.1344,0.1418,0.1449,0.146,0.1501,0.1452,0.1574,0.1605,0.1508,0.1542,0.1625,0.1639,0.1576,0,0,0,0,0,0,0.0747,0.0792,0.0793,0.0791,0.0812,0.0873,0.0945,0.1048,0.106,0.1215,0.123,0.1342,0.1374,0.1459,0.1411,0.1426,0.1414,0.1573,0.1569,0.1617,0.163,0.1641,0.1581,0,0,0,0,0]},{"header":{"parameterUnit":"m.s-1","parameterCategory":2,"la1":30.2991,"la2":30.254,"lo1":-89.0895,"lo2":-89.0444,"dy":0.0017,"dx":0.0017,"nx":28,"ny":28,"refTime":"2026-02-26T03:00:00:Z","depth":"4","parameterNumber":3,"parameterNumberName":"V-component_of_CURRENTS"},"data":[0,0,0,0,0,0,0,0,0,0,0,0,0,0,0,0,0,0,0,0,0,0,0,0,0,0,0,0,0,0,0,0,0,0,0,0,0,0,0,0,0,0,0,0,0,0,0,0,0,0,0,0,0,0,0,0,0,0,-0.0061,-0.0061,0,-0.009,-0.009,-0.009,-0.011,-0.011,-0.0111,-0.0111,-0.0166,-0.0167,-0.0169,0,0,0,0,0,0,0,0,0,0,0,0,0,-0.0047,-0.0047,-0.0061,-0.0061,-0.0061,-0.009,-0.009,-0.009,-0.011,-0.011,-0.0111,-0.0111,-0.0166,-0.0167,-0.0169,0,0,0,0,0,0,0,0,0,0,0,0,0,-0.0062,-0.0047,-0.0061,-0.0074,-0.0076,-0.0089,-0.009,-0.0091,-0.011,-0.011,-0.0111,-0.0111,-0.0165,-0.0167,-0.0169,-0.0179,0,0,-0.0175,-0.0176,0,0,0,0,0,0,0,0,-0.0061,-0.0063,-0.0072,-0.0073,-0.0075,-0.0096,-0.0105,-0.0121,-0.011,-0.0098,-0.0111,-0.0111,-0.0145,-0.0148,-0.0154,-0.0181,-0.0184,-0.0176,-0.0177,-0.0178,-0.0178,0,0,0,0,0,0,0,-0.006,-0.0062,-0.0073,-0.0072,-0.0074,-0.0087,-0.0089,-0.0109,-0.0121,-0.0099,-0.01,-0.0103,-0.0146,-0.0152,-0.0155,-0.0185,-0.0176,-0.0177,-0.0179,-0.018,-0.0233,-0.0234,0,0,0,0,0,0,-0.0054,-0.0061,-0.0072,-0.0074,-0.0068,-0.0087,-0.009,-0.009,-0.012,-0.0125,-0.0102,-0.0103,-0.0148,-0.0153,-0.0157,-0.0169,-0.0178,-0.018,-0.0181,-0.0233,-0.0234,-0.0234,0,0,0,0,0,0,-0.0054,-0.0055,-0.0071,-0.0068,-0.007,-0.0087,-0.0087,-0.009,-0.0097,-0.0122,-0.0128,-0.0106,-0.0149,-0.0155,-0.0174,-0.0172,-0.0181,-0.0183,-0.0233,-0.0233,-0.0234,-0.0194,0,0,0,0,0,0,-0.0053,-0.0054,-0.0054,-0.0067,-0.007,-0.0078,-0.0087,-0.0091,-0.0098,-0.01,-0.0128,-0.0133,-0.0149,-0.0171,-0.0176,-0.0175,-0.0184,-0.0233,-0.0233,-0.0234,-0.0195,-0.0193,-0.0191,0,0,0,0,0,-0.0053,-0.005,-0.0054,-0.0055,-0.0068,-0.0077,-0.008,-0.0093,-0.0098,-0.01,-0.0119,-0.0132,-0.0177,-0.0172,-0.0179,-0.0178,-0.0233,-0.0233,-0.0234,-0.0196,-0.0194,-0.0192,0,0,0,0,0,0,-0.0047,-0.0053,-0.0056,-0.0057,-0.0066,-0.0081,-0.0084,-0.0092,-0.0108,-0.011,-0.0134,-0.014,-0.0158,-0.0175,-0.0169,-0.0196,-0.0208,-0.0209,-0.0177,-0.0175,-0.0173,-0.0165,-0.0186,0,0,0,0,0,-0.0044,-0.0043,-0.0052,-0.0053,-0.0056,-0.0069,-0.0075,-0.0083,-0.0097,-0.0104,-0.0123,-0.0144,-0.0164,-0.0174,-0.0196,-0.0208,-0.0238,-0.0213,-0.0211,-0.0209,-0.0208,-0.0258,-0.0261,-0.0235,-0.0235,-0.0235,0,0,-0.0042,-0.0045,-0.0045,-0.0052,-0.0059,-0.0054,-0.0073,-0.0079,-0.0076,-0.0108,-0.0113,-0.0139,-0.0167,-0.0181,-0.0191,-0.0195,-0.0232,-0.021,-0.0208,-0.0208,-0.0259,-0.0262,-0.0264,-0.0235,-0.0235,-0.0235,0,0,-0.0032,-0.004,-0.0032,-0.0034,-0.0041,-0.0048,-0.0048,-0.0061,-0.0069,-0.0078,-0.0101,-0.0127,-0.0152,-0.0173,-0.0186,-0.0187,-0.0221,-0.0194,-0.0175,-0.0223,-0.0226,-0.0228,-0.0264,-0.027,-0.0191,-0.019,-0.019,0,-0.003,-0.0017,-0.0033,-0.0022,-0.0018,-0.0041,-0.0027,-0.0038,-0.0056,-0.0064,-0.0074,-0.0124,-0.0148,-0.0169,-0.0168,-0.0182,-0.0213,-0.0178,-0.022,-0.0224,-0.0227,-0.0263,-0.0271,-0.0189,-0.0189,-0.0189,-0.0189,0,-0.0008,0.0003,0.0007,0.0018,0.0015,0.0022,0.0011,0.0003,-0.0011,-0.0027,-0.0056,-0.0094,-0.0124,-0.0136,-0.015,-0.0183,-0.0197,-0.0213,-0.0224,-0.0227,-0.0265,-0.0273,-0.0186,-0.0187,-0.0187,-0.0188,0,0,-0.0001,0.0021,0.0023,0.004,0.0041,0.0042,0.0045,0.0037,0.0033,0.0002,-0.0009,-0.0051,-0.0082,-0.01,-0.013,-0.0169,-0.0216,-0.0195,-0.0199,-0.0226,-0.0318,-0.0285,-0.0291,-0.0241,-0.0243,-0.0244,-0.0333,0,0.0024,0.006,0.0061,0.0092,0.0111,0.0095,0.01,0.0085,0.0062,0.0042,-0.0009,-0.0032,-0.0064,-0.008,-0.0126,-0.0194,-0.0237,-0.019,-0.0315,-0.0319,-0.0285,-0.0299,-0.0248,-0.0339,-0.0341,-0.0343,-0.0344,0,0.0051,0.0074,0.0114,0.0137,0.0142,0.0154,0.0151,0.0152,0.0114,0.0094,0.0052,0.0009,-0.0047,-0.0076,-0.0197,-0.0166,-0.0238,-0.0294,-0.0299,-0.0287,-0.0301,-0.0339,-0.0359,-0.0358,-0.0357,-0.0356,-0.0355,0,0.0073,0.0109,0.0145,0.0155,0.0176,0.0185,0.0189,0.0166,0.0165,0.0126,0.0111,0.0034,-0.0012,-0.0104,-0.0215,-0.0211,-0.0354,-0.0365,-0.0406,-0.0404,-0.0425,-0.0421,-0.046,-0.046,-0.046,-0.046,-0.0459,0,0.0106,0.0133,0.016,0.0183,0.0212,0.0215,0.0233,0.0221,0.0207,0.0202,0.014,0.0108,-0.0026,-0.012,-0.0212,-0.0329,-0.0357,-0.0405,-0.0427,-0.0405,-0.0398,-0.043,-0.0426,-0.0463,-0.0462,-0.0461,-0.0461,0,0.0123,0.0147,0.0185,0.0216,0.0227,0.0245,0.0269,0.0274,0.0262,0.0253,0.0245,0.0145,0.003,-0.0096,-0.0261,-0.0326,-0.0435,-0.0474,-0.0433,-0.0451,-0.0454,-0.0446,-0.0522,-0.0522,-0.0521,-0.0521,-0.0521,0,0.0134,0.0159,0.0203,0.022,0.0237,0.0268,0.0285,0.0298,0.0314,0.0275,0.0273,0.0159,0.0084,-0.0117,-0.0255,-0.042,-0.0445,-0.05,-0.0482,-0.0447,-0.0462,-0.0455,-0.0448,-0.052,-0.052,-0.052,-0.052,0,0.0139,0.0154,0.0174,0.0215,0.0244,0.0284,0.0321,0.0348,0.0359,0.0352,0.0299,0.0192,0.0054,-0.0106,-0.0238,-0.0358,-0.0457,-0.0497,-0.0499,-0.0482,-0.0446,-0.0459,-0.0453,-0.0519,-0.0519,-0.0519,-0.0519,0,0.0116,0.0125,0.0145,0.0184,0.0223,0.0274,0.0311,0.0339,0.0359,0.0356,0.0328,0.0188,0.01,-0.0077,-0.0197,-0.0306,-0.0334,-0.0364,-0.0374,-0.0376,-0.0301,-0.0232,-0.026,0,0,0,0,0,0.0075,0.0077,0.0111,0.0154,0.0205,0.024,0.031,0.0352,0.0393,0.0373,0.0364,0.025,0.0062,-0.0035,-0.0137,-0.0206,-0.0366,-0.033,-0.0409,-0.0513,-0.0514,-0.0446,0,0,0,0,0,0,0.0035,0.0047,0.0085,0.0121,0.0163,0.0221,0.0276,0.0318,0.0328,0.035,0.0255,0.0226,0.0043,0.0117,-0.0143,-0.0179,-0.0241,-0.0412,-0.0414,-0.0512,-0.0513,-0.0514,-0.0445,0,0,0,0,0]}]]